Vorticity
3 5 8 11 14 8 6 -4 -2 17 22 24 16 -4 -1 7 -6 7 0 0 9 12 10 5 3 7 6 6 9 9 5 4 5 5 5 6 6 4 4 4 4 3 3 3 4 5 4 4 5
3 4 4 -1 0 1 4 1 2 -19 -5 5 5 14 -5 -1 4 7 12 6 4 5 14 7 4 6 6 6 8 10 7 5 5 5 5 5 6 4 4 4 3 3 3 3 5 6 5 5 4
6 6 8 10 20 -1 -2 2 5 -3 -2 11 12 -3 10 18 5 8 -2 10 9 5 16 6 4 6 6 5 8 8 8 6 4 4 4 5 5 4 4 4 3 3 3 4 5 6 4 3 3
12 11 14 -2 -15 -4 1 6 10 15 -2 -11 9 11 8 17 -2 13 6 5 8 8 14 6 4 6 5 5 7 8 8 6 5 5 5 5 6 6 4 4 3 3 3 4 5 5 3 3 4
11 9 7 4 1 7 7 1 -3 10 1 -14 9 11 3 0 1 2 14 3 4 13 13 5 4 5 6 5 8 8 7 6 6 6 6 6 5 5 5 4 4 3 3 4 5 4 4 3 5
8 6 -4 8 1 10 11 8 1 20 10 1 10 -2 7 7 2 6 7 -0 2 17 12 5 4 5 6 7 8 8 7 6 5 5 4 5 5 5 5 4 4 4 4 5 5 4 3 5 9
7 9 1 6 0 4 5 6 -1 -10 11 16 3 -7 7 2 -2 12 -2 3 3 18 9 7 5 4 6 5 7 7 7 5 5 5 6 6 6 6 5 4 4 5 5 6 6 4 4 10 6
11 8 4 4 5 1 13 13 1 10 -6 19 39 20 -2 6 13 3 7 6 4 15 8 7 6 6 6 5 5 7 7 6 5 6 6 6 6 6 6 5 5 5 6 6 4 5 6 5 6
10 5 1 2 7 2 9 13 11 8 8 -11 -15 8 19 3 3 12 -5 12 3 8 10 6 6 5 6 4 5 5 5 6 5 5 5 5 5 5 6 6 6 6 7 5 5 5 4 5 6
8 3 -2 5 8 7 8 9 -3 2 6 2 -13 -22 33 1 7 4 2 16 3 7 14 6 5 5 6 5 5 5 6 6 6 6 6 5 5 6 6 6 6 6 5 4 4 4 6 9 5
3 -2 10 7 6 9 6 5 4 9 7 43 -24 3 20 -3 -1 3 29 4 14 5 11 7 6 5 6 5 5 5 5 6 6 6 6 6 6 5 6 6 7 5 5 12 -8 4 6 10 8
5 9 9 10 12 9 7 9 6 1 -1 -22 25 18 19 -1 0 21 6 -3 12 1 10 7 6 5 5 5 5 5 6 6 6 7 10 7 4 6 5 5 6 4 6 -1 3 3 7 9 9
5 7 9 5 7 10 12 14 7 11 -6 10 11 31 -1 7 2 0 -6 21 13 3 10 8 6 5 5 5 5 4 5 6 7 8 2 4 6 4 4 4 4 4 2 -3 3 4 7 11 11
6 7 8 9 11 3 5 18 4 -3 -9 19 17 15 -3 -3 9 8 7 1 1 7 9 7 7 5 5 5 5 5 5 6 6 6 13 3 5 3 3 4 3 3 -4 1 6 6 8 11 9
6 6 6 7 8 12 6 6 14 2 -0 2 -10 11 14 5 -5 4 17 -2 9 18 5 7 7 5 4 5 4 4 5 6 5 5 3 3 4 4 5 4 2 1 -1 4 7 7 9 12 11
12 11 8 16 15 6 20 -8 17 12 -0 3 -6 -3 23 10 -1 4 10 5 -4 12 4 8 7 5 4 5 5 3 6 4 8 3 6 1 6 1 5 2 2 3 3 8 6 7 10 17 4
20 -4 0 2 4 12 14 7 16 11 5 8 7 2 18 7 25 -5 5 5 4 5 10 8 7 4 4 5 5 3 7 17 7 1 5 5 5 5 3 4 4 5 6 4 6 8 15 9 -2
16 16 13 12 17 32 7 19 3 7 4 9 2 2 14 21 -4 4 9 5 12 10 13 10 7 6 5 6 4 9 8 6 6 9 6 5 5 4 5 5 6 7 6 7 8 10 18 2 -2
14 -27 -12 -5 1 -3 9 30 21 27 4 13 3 -4 7 27 3 4 16 5 19 6 5 13 6 5 5 4 5 4 3 7 7 3 7 6 4 5 7 7 7 5 7 11 10 13 8 1 -1
1 8 16 21 17 -2 -6 9 34 9 11 2 14 13 -2 23 11 9 10 -17 31 14 4 13 8 4 6 4 1 3 6 7 13 8 6 7 5 5 6 7 6 7 11 12 14 14 2 3 5
4 8 4 2 -4 5 9 18 6 16 20 10 -4 7 9 13 13 9 6 6 49 -7 15 9 7 4 3 5 2 5 5 6 7 5 9 4 5 6 8 6 8 11 9 15 17 2 2 2 2
7 11 7 1 14 2 5 7 12 24 20 4 16 3 16 3 17 10 5 -8 12 55 22 3 8 8 4 5 4 4 4 12 8 8 8 3 5 8 8 7 10 10 10 5 3 1 7 8 10
19 22 14 12 10 14 5 10 18 10 28 18 13 14 9 7 12 8 -1 10 15 40 -16 -33 6 8 4 3 4 6 9 10 11 7 4 4 7 10 9 10 9 7 2 4 6 11 12 13 7
-23 20 7 13 9 32 8 -10 27 10 14 7 26 26 9 2 13 10 -6 17 10 15 79 -21 -4 6 12 7 6 9 8 9 7 3 5 6 9 8 8 7 10 -1 1 8 13 6 7 8 8
6 5 22 32 32 9 11 18 -17 17 16 8 -10 17 18 19 3 12 4 -1 -13 65 -9 34 -20 -2 5 6 11 8 7 8 3 8 6 9 9 7 6 8 10 3 1 11 6 6 7 6 10
7 -1 -45 19 10 30 19 16 -12 33 8 -8 -3 16 28 18 5 14 17 13 12 20 -1 0 -6 3 8 7 11 3 7 7 9 6 8 11 9 6 7 11 6 3 5 6 7 8 9 8 9
29 24 13 -35 14 9 11 14 23 30 9 22 -9 35 33 7 20 -0 11 3 10 -19 59 17 -12 10 4 10 4 11 12 8 5 5 8 8 5 4 8 10 3 6 7 5 6 8 9 9 9
-5 28 10 12 13 9 13 8 -8 35 20 24 24 27 23 9 10 9 6 5 16 -9 85 16 -21 14 -1 8 8 11 7 8 6 5 10 7 4 5 11 8 8 8 8 5 7 8 8 9 8
13 23 -1 -6 -13 3 10 20 -6 27 19 24 5 24 22 21 13 1 5 5 19 15 8 50 33 4 -1 6 7 -4 5 7 6 8 11 6 3 9 10 9 10 9 6 6 8 7 7 8 9
5 29 2 -20 5 6 -7 13 4 11 -5 36 24 6 23 -11 24 21 2 15 3 9 10 60 69 -20 5 5 8 16 5 4 6 9 11 3 7 11 12 10 7 5 5 6 7 7 7 8 9
Height
3152 3152 3153 3154 3160 3156 3154 3155 3158 3162 3159 3158 3160 3158 3158 3156 3158 3163 3161 3161 3162 3164 3168 3171 3173 3175 3176 3177 3178 3178 3179 3180 3180 3180 3180 3180 3181 3181 3181 3182 3182 3182 3183 3183 3184 3185 3185 3186 3186
3148 3149 3151 3151 3153 3152 3150 3152 3156 3159 3159 3161 3160 3159 3159 3156 3157 3158 3159 3158 3161 3164 3168 3170 3172 3174 3176 3177 3178 3178 3179 3180 3180 3180 3181 3181 3182 3182 3182 3183 3183 3184 3184 3185 3186 3187 3187 3187 3187
3144 3145 3147 3147 3146 3146 3145 3150 3154 3157 3159 3159 3157 3158 3157 3158 3157 3157 3158 3158 3161 3164 3166 3169 3172 3173 3175 3177 3177 3178 3178 3179 3179 3180 3181 3182 3183 3183 3184 3184 3185 3185 3185 3186 3187 3188 3188 3188 3187
3138 3140 3143 3140 3138 3141 3142 3146 3150 3152 3158 3158 3156 3153 3157 3157 3158 3159 3158 3159 3161 3163 3165 3169 3171 3173 3174 3175 3177 3177 3177 3178 3179 3180 3182 3183 3183 3184 3184 3185 3186 3186 3186 3187 3188 3189 3189 3188 3188
3133 3134 3135 3132 3132 3134 3138 3142 3148 3149 3154 3155 3155 3151 3153 3155 3156 3157 3158 3159 3162 3162 3164 3168 3171 3172 3173 3175 3176 3177 3178 3179 3180 3181 3182 3183 3184 3185 3185 3186 3187 3188 3187 3188 3189 3190 3190 3190 3190
3129 3129 3127 3125 3126 3131 3134 3140 3146 3147 3150 3152 3153 3150 3151 3152 3155 3156 3157 3159 3160 3161 3163 3166 3169 3171 3173 3174 3176 3177 3178 3179 3180 3181 3182 3184 3185 3186 3186 3187 3188 3188 3189 3189 3190 3191 3191 3191 3191
3125 3124 3122 3122 3125 3126 3130 3140 3143 3140 3145 3148 3149 3148 3149 3152 3154 3155 3155 3157 3159 3160 3162 3165 3168 3170 3171 3173 3175 3176 3177 3178 3179 3181 3183 3184 3186 3186 3187 3187 3188 3189 3190 3191 3192 3192 3192 3192 3192
3121 3120 3118 3119 3122 3121 3129 3136 3137 3141 3143 3144 3144 3144 3142 3149 3152 3153 3154 3155 3157 3159 3162 3164 3167 3169 3170 3172 3173 3175 3177 3178 3179 3181 3183 3184 3185 3187 3188 3188 3190 3190 3191 3192 3192 3192 3192 3192 3191
3116 3115 3113 3116 3118 3120 3126 3130 3133 3136 3139 3142 3142 3138 3137 3146 3149 3149 3150 3152 3155 3158 3160 3163 3166 3168 3170 3171 3173 3174 3176 3178 3179 3181 3182 3184 3186 3187 3188 3189 3190 3191 3192 3193 3193 3193 3193 3193 3191
3111 3108 3109 3114 3116 3117 3121 3124 3128 3132 3134 3136 3138 3137 3136 3140 3145 3146 3148 3149 3153 3156 3157 3161 3164 3167 3169 3171 3173 3174 3176 3178 3179 3180 3182 3183 3185 3187 3188 3189 3190 3192 3193 3194 3194 3194 3194 3194 3192
3105 3101 3107 3109 3112 3114 3116 3119 3121 3123 3126 3131 3136 3134 3137 3139 3142 3143 3144 3147 3153 3154 3156 3158 3162 3165 3168 3171 3172 3173 3175 3178 3179 3180 3181 3183 3185 3187 3188 3190 3190 3193 3194 3194 3195 3195 3195 3195 3193
3098 3099 3102 3104 3107 3108 3109 3115 3114 3117 3119 3129 3133 3132 3132 3135 3138 3140 3142 3144 3148 3151 3154 3156 3159 3163 3166 3169 3171 3172 3174 3176 3180 3181 3181 3184 3186 3187 3189 3190 3190 3192 3194 3195 3195 3194 3196 3194 3193
3092 3094 3095 3097 3100 3102 3105 3105 3108 3106 3114 3122 3124 3125 3127 3132 3136 3138 3140 3142 3145 3149 3151 3153 3157 3160 3163 3166 3169 3171 3173 3175 3178 3181 3181 3183 3185 3186 3188 3189 3190 3191 3194 3195 3194 3194 3195 3194 3193
3088 3087 3087 3090 3090 3093 3097 3097 3100 3098 3109 3115 3117 3120 3121 3127 3131 3134 3135 3137 3142 3146 3148 3150 3154 3157 3161 3164 3167 3169 3171 3174 3176 3180 3180 3182 3184 3185 3187 3188 3189 3190 3192 3194 3194 3194 3194 3193 3193
3079 3079 3080 3081 3085 3086 3094 3088 3079 3095 3102 3106 3108 3112 3115 3119 3125 3128 3132 3135 3137 3143 3145 3147 3150 3154 3157 3160 3164 3167 3169 3173 3174 3177 3179 3181 3182 3184 3186 3187 3189 3189 3189 3191 3192 3192 3193 3192 3193
3075 3074 3072 3073 3079 3081 3090 3066 3078 3090 3095 3097 3100 3104 3108 3111 3118 3120 3122 3126 3132 3137 3140 3144 3145 3149 3153 3157 3160 3164 3167 3170 3172 3175 3178 3179 3181 3183 3184 3186 3188 3188 3189 3190 3190 3192 3193 3193 3194
3068 3064 3064 3065 3072 3078 3079 3064 3074 3084 3087 3090 3093 3096 3100 3105 3108 3114 3116 3120 3125 3132 3136 3141 3141 3144 3148 3153 3158 3161 3165 3168 3170 3173 3175 3176 3180 3182 3183 3185 3186 3188 3189 3189 3189 3191 3193 3194 3195
3059 3060 3058 3056 3065 3070 3068 3059 3066 3074 3080 3082 3085 3088 3092 3097 3101 3108 3111 3116 3120 3125 3130 3136 3138 3141 3145 3149 3153 3157 3161 3166 3168 3170 3173 3175 3178 3180 3182 3184 3185 3187 3187 3189 3189 3190 3192 3193 3194
3058 3056 3051 3051 3059 3061 3057 3058 3058 3067 3071 3073 3076 3081 3086 3091 3099 3101 3103 3106 3113 3116 3122 3127 3132 3135 3139 3143 3147 3153 3156 3160 3164 3167 3171 3174 3176 3178 3181 3182 3184 3185 3187 3188 3188 3189 3191 3192 3193
3050 3049 3043 3047 3054 3057 3053 3049 3052 3057 3059 3064 3068 3072 3079 3086 3089 3093 3095 3096 3107 3107 3118 3118 3126 3129 3134 3139 3144 3151 3155 3159 3164 3166 3169 3172 3174 3176 3178 3180 3182 3184 3186 3186 3187 3188 3190 3191 3192
3040 3041 3041 3044 3048 3050 3049 3044 3043 3046 3050 3054 3058 3063 3071 3076 3081 3085 3086 3085 3097 3100 3109 3108 3118 3123 3130 3134 3140 3147 3152 3155 3160 3162 3165 3168 3171 3174 3176 3177 3180 3182 3184 3185 3186 3188 3190 3190 3190
3032 3037 3039 3042 3044 3042 3044 3039 3035 3040 3041 3044 3049 3053 3061 3068 3074 3076 3079 3081 3077 3070 3096 3093 3110 3118 3125 3130 3135 3141 3147 3152 3156 3160 3163 3165 3168 3171 3174 3175 3177 3180 3183 3184 3185 3187 3188 3188 3188
3027 3033 3033 3034 3034 3036 3033 3036 3026 3036 3034 3035 3042 3045 3052 3060 3067 3067 3071 3072 3071 3079 3085 3082 3099 3111 3119 3124 3133 3137 3145 3151 3154 3156 3159 3161 3165 3169 3171 3173 3175 3178 3180 3182 3183 3185 3185 3186 3186
3022 3023 3026 3027 3028 3023 3022 3032 3023 3024 3026 3029 3034 3038 3044 3050 3059 3066 3069 3072 3075 3073 3072 3078 3092 3105 3114 3120 3127 3133 3141 3144 3148 3151 3155 3157 3162 3165 3168 3171 3173 3176 3178 3180 3181 3183 3183 3183 3184
3013 3018 3020 3020 3017 3015 3020 3024 3016 3017 3022 3025 3029 3031 3035 3040 3050 3058 3063 3065 3068 3068 3074 3077 3087 3100 3109 3114 3122 3129 3135 3141 3145 3148 3152 3155 3158 3162 3165 3168 3170 3174 3176 3177 3180 3181 3181 3181 3183
3003 3010 3014 3009 3014 3014 3017 3016 3008 3012 3018 3021 3022 3025 3028 3034 3042 3049 3056 3060 3063 3068 3070 3079 3086 3096 3104 3110 3116 3124 3130 3135 3140 3144 3148 3152 3156 3159 3163 3165 3168 3172 3173 3175 3177 3178 3178 3179 3181
2995 2999 3010 3009 3007 3009 3006 3008 3005 3008 3009 3009 3012 3014 3019 3028 3035 3043 3049 3051 3056 3064 3054 3068 3082 3089 3097 3103 3110 3118 3124 3130 3136 3140 3144 3148 3152 3156 3159 3162 3165 3169 3171 3173 3175 3176 3176 3177 3178
2991 2996 3004 3006 3007 3006 3004 3004 3003 3000 3003 3005 3006 3006 3012 3021 3029 3037 3042 3049 3053 3059 3055 3057 3066 3082 3091 3096 3106 3112 3121 3126 3132 3136 3141 3144 3148 3152 3155 3158 3162 3166 3168 3171 3172 3174 3174 3175 3176
2986 2987 2994 3001 3001 3000 3004 3005 3005 2999 2998 2997 3000 3003 3008 3015 3022 3030 3034 3042 3046 3052 3057 3052 3062 3073 3084 3092 3100 3107 3115 3121 3127 3133 3138 3141 3145 3148 3151 3155 3159 3163 3166 3168 3170 3171 3171 3173 3173
2983 2987 2994 2998 3001 3000 3002 3007 3000 3000 2998 2995 2994 2997 3004 3011 3017 3023 3028 3034 3041 3046 3051 3055 3048 3061 3077 3086 3095 3102 3110 3117 3123 3129 3134 3138 3142 3144 3148 3152 3157 3160 3164 3166 3168 3168 3168 3170 3171